Location: Tel Aviv
(32.0670°N, 34.7670°E)
Time: 04:06:43
(UTC+03:00)

Tiros 1 - Pass Details

Date: 24 January 2022
Orbit: 629 x 663 km, 48.4° (Epoch: 26 May)

Event Time Altitude Azimuth Distance (km) Brightness Sun altitude
Rises 05:27:18 0° 309° (NW) 2,966 - -15.3°
Reaches altitude 10° 05:29:40 10° 309° (NW) 2,048 - -14.8°
Exits shadow 05:31:11 21° 308° (NW) 1,468 8.4 -14.5°
Maximum altitude 05:34:23 85° 221° (SW) 648 7.1 -13.9°
Drops below altitude 10° 05:39:02 10° 133° (SE) 2,017 10.7 -12.9°
Sets 05:41:21 0° 133° (SE) 2,917 11.7 -12.4°
